Home > Time Zones > World Clock > Weather > Iran > Tabriz > Past weeks

Flag for Iran Weather past 2 weeks in Tabriz, Iran

Now
37 °F

Broken clouds.


Feels Like: 27 °F
Forecast: 19 / 44 °F
Wind: 22 mph from North

Location: Tabriz Airport

Current Time: Mar 5, 2015 at 3:55:08 PM

Latest Report: Mar 5, 2015 at 3:30 PM


Visibility: 5 mi

Pressure: 30.07 "Hg

Humidity: 65%

Dew point: 27 °F

Location of TabrizLocation

Historic Weather in Tabriz — Graph

°F

Tabriz temperature yesterday

Maximum temperature yesterday: 50 °F (at 3:30 PM)
Minimum temperature yesterday: 32 °F (at 1:30 AM)
Average temperature yesterday: 40 °F

Past Weeks' High & Low Weather Summary

 TemperatureHumidityPressure
High55 °F (Feb 28, 4:30 PM)93% (Feb 19, 12:30 AM)30.39 "Hg (Feb 19, 12:30 AM)
Low23 °F (Feb 22, 11:30 PM)30% (Feb 27, 1:30 PM)29.53 "Hg (Feb 20, 4:00 PM)
Average37 °F66%30.03 "Hg
* Reported Feb 18 2:30 PM — Mar 5 3:00 PM, Tabriz, Weather by CustomWeather, © 2015

Note: Actual official high and low records may vary slightly from our data, if they occured in-between our weather recording intervals... More about our weather records

Advertising

Tabriz weather history for previous 24 hours

 ConditionsComfort  
Time TempWeatherWind HumidityBarometerVisibility
3:00 PM
Thu, Mar 5
39 °FScattered clouds.22 mph65%30.07 "HgN/A
2:30 PM37 °FScattered clouds.16 mph75%30.07 "HgN/A
2:00 PM32 °FBroken clouds.5 mph93%30.07 "Hg4 mi
1:30 PM32 °FHeavy snow. More clouds than sun.5 mph93%30.07 "Hg0 mi
1:00 PM34 °FHeavy snow. More clouds than sun.7 mph87%30.07 "Hg1 mi
12:30 PM36 °FHeavy snow. More clouds than sun.22 mph81%30.07 "Hg1 mi
12:00 PM36 °FScattered showers. Broken clouds.22 mph81%30.04 "Hg5 mi
11:30 AM34 °FScattered showers. Broken clouds.21 mph87%30.04 "HgN/A
11:00 AM36 °FBroken clouds.16 mph81%30.04 "HgN/A
10:30 AM34 °FBroken clouds.21 mph87%30.01 "Hg4 mi
10:00 AM34 °FSnow showers. More clouds than sun.18 mph87%30.04 "Hg3 mi
9:30 AM34 °FScattered showers. Fog.18 mph87%30.01 "Hg3 mi
9:00 AM34 °FSnow showers. More clouds than sun.14 mph87%29.98 "Hg2 mi
8:30 AM34 °FSnow showers. Broken clouds.14 mph93%29.98 "Hg4 mi
8:00 AM34 °FScattered showers. Broken clouds.9 mph93%29.98 "Hg4 mi
7:00 AM34 °FHail. Fog.9 mph93%29.95 "Hg2 mi
6:30 AM34 °FFog.5 mph93%29.92 "Hg3 mi
5:30 AM36 °FSprinkles. Overcast.No wind87%29.92 "Hg4 mi
5:00 AM37 °FHail. Overcast.5 mph81%29.89 "Hg4 mi
4:30 AM37 °FPassing clouds.5 mph87%29.89 "Hg4 mi
4:00 AM37 °FPassing clouds.5 mph87%29.89 "Hg4 mi
3:30 AM37 °FMostly cloudy.7 mph87%29.92 "Hg4 mi
3:00 AM37 °FLight rain. Mostly cloudy.12 mph87%29.92 "Hg4 mi
2:30 AM37 °FMostly cloudy.7 mph93%29.92 "Hg4 mi
2:00 AM39 °FLight rain. Mostly cloudy.No wind81%29.92 "Hg4 mi
12:30 AM39 °FMostly cloudy.5 mph65%29.92 "HgN/A
11:50 PM
Wed, Mar 4
39 °FMostly cloudy.5 mph61%29.92 "HgN/A
11:30 PM39 °FPassing clouds.9 mph61%29.92 "HgN/A
10:50 PM37 °FPassing clouds.7 mph65%29.92 "HgN/A
10:00 PM37 °FClear.12 mph65%29.92 "Hg10 mi
9:30 PM39 °FPassing clouds.7 mph61%29.92 "HgN/A
9:00 PM39 °FPassing clouds.5 mph61%29.92 "HgN/A
8:30 PM41 °FPassing clouds.2 mph53%29.92 "HgN/A
8:00 PM39 °FPassing clouds.2 mph61%29.92 "HgN/A
7:30 PM43 °FPassing clouds.5 mph53%29.92 "HgN/A
7:00 PM43 °FPassing clouds.9 mph53%29.92 "HgN/A
6:30 PM46 °FPassing clouds.9 mph46%29.92 "HgN/A
6:00 PM46 °FPassing clouds.14 mph46%29.92 "HgN/A
5:30 PM48 °FPassing clouds.5 mph43%29.92 "HgN/A
5:00 PM50 °FScattered clouds.9 mph40%29.92 "HgN/A
4:30 PM50 °FScattered clouds.9 mph40%29.92 "HgN/A
4:00 PM50 °FScattered clouds.7 mph47%29.92 "HgN/A
3:30 PM50 °FScattered clouds.7 mph47%29.92 "HgN/A
3:00 PM48 °FScattered clouds.12 mph50%29.92 "HgN/A
Weather by CustomWeather, © 2015

See weather overviewHow to use our weather pages